Voltar ao catálogo

STARLINK-3853

AtivoComunicaçõesVLEO
NORAD 52359·PAYLOAD·🇺🇸 United States

Lançado Apr 29, 2022 de Cape Canaveral Space Force Station

Loading…

Próximas Passagens (próximas 24 horas)

TLE

AtualizadoSource: CelesTrak SupGP

Época: Sep 15, 2026, 01:52 UTC

1 52359C 22045AE  26258.07826389 -.00030920  00000+0 -99437-3 0  2581
2 52359  53.1603  59.0358 0001224  82.6691 105.6534 15.31715562    16

Acompanhe STARLINK-3853 em tempo real com AllMySat

Download on the App Store